[[{"header":{"parameterUnit":"m.s-1","parameterCategory":1,"la1":30.2991,"la2":30.254,"lo1":-89.0895,"lo2":-89.0444,"dy":0.0017,"dx":0.0017,"nx":28,"ny":28,"refTime":"2025-04-24T03:00:00:Z","depth":0,"parameterNumber":2,"parameterNumberName":"U-component_of_WINDS"},"data":[0,0,0,0,0,0,0,0,0,0,0,0,0,0,0,0,0,0,0,0,0,0,0,0,0,0,0,0,0,0,0,0,0,0,0,0,0,0,0,0,0,0,0,0,0,0,0,0,0,0,0,0,0,0,0,0,0,0,-2.5869,-2.587,0,-2.5977,-2.5978,-2.5979,-2.5986,-2.5984,-2.5983,-2.5982,-2.6098,-2.6103,-2.6107,0,0,0,0,0,0,0,0,0,0,0,0,0,-2.5674,-2.5678,-2.5869,-2.587,-2.5872,-2.5977,-2.5978,-2.598,-2.5986,-2.5984,-2.5983,-2.5981,-2.6097,-2.6102,-2.6107,0,0,0,0,0,0,0,0,0,0,0,0,0,-2.5768,-2.5679,-2.5869,-2.5887,-2.589,-2.5976,-2.5978,-2.598,-2.5986,-2.5984,-2.5982,-2.5981,-2.6095,-2.6102,-2.6108,-2.6185,0,0,-2.6127,-2.613,0,0,0,0,0,0,0,0,-2.5763,-2.5776,-2.5883,-2.5886,-2.5889,-2.5966,-2.5952,-2.6049,-2.5987,-2.595,-2.5982,-2.598,-2.6056,-2.6066,-2.609,-2.619,-2.6195,-2.6128,-2.6132,-2.6135,-2.6136,0,0,0,0,0,0,0,-2.5757,-2.5771,-2.5912,-2.5885,-2.5888,-2.5892,-2.5904,-2.5971,-2.6012,-2.5953,-2.5954,-2.5966,-2.6058,-2.6084,-2.6093,-2.6197,-2.6128,-2.6134,-2.6137,-2.614,-2.6367,-2.637,0,0,0,0,0,0,-2.5746,-2.5766,-2.5908,-2.5915,-2.582,-2.5897,-2.591,-2.5943,-2.6012,-2.602,-2.5967,-2.5966,-2.6074,-2.6086,-2.6097,-2.6192,-2.6135,-2.6141,-2.6144,-2.6365,-2.6368,-2.637,0,0,0,0,0,0,-2.5741,-2.5758,-2.5904,-2.5841,-2.5859,-2.5903,-2.594,-2.5946,-2.5973,-2.6023,-2.6031,-2.5986,-2.6073,-2.6088,-2.6163,-2.6196,-2.6143,-2.6149,-2.6363,-2.6366,-2.6369,-2.6382,0,0,0,0,0,0,-2.5736,-2.5757,-2.5785,-2.5841,-2.5863,-2.5966,-2.5942,-2.595,-2.5983,-2.5982,-2.6042,-2.6051,-2.6073,-2.6153,-2.6169,-2.6204,-2.6154,-2.636,-2.6364,-2.6368,-2.6379,-2.6385,-2.6391,0,0,0,0,0,-2.5729,-2.5785,-2.5786,-2.5803,-2.5898,-2.5968,-2.598,-2.6003,-2.5986,-2.6015,-2.6048,-2.6049,-2.619,-2.6161,-2.6179,-2.6216,-2.6358,-2.6363,-2.6368,-2.6376,-2.6384,-2.6391,0,0,0,0,0,0,-2.5733,-2.5793,-2.5794,-2.587,-2.5914,-2.5968,-2.6006,-2.601,-2.6061,-2.6058,-2.6086,-2.6099,-2.6173,-2.6203,-2.6169,-2.6295,-2.6272,-2.6281,-2.6273,-2.6281,-2.6286,-2.6277,-2.616,0,0,0,0,0,-2.5743,-2.5792,-2.5843,-2.5905,-2.5926,-2.5963,-2.5994,-2.6007,-2.6054,-2.6073,-2.6111,-2.6158,-2.6213,-2.6249,-2.6302,-2.6384,-2.6398,-2.6418,-2.6424,-2.6429,-2.6436,-2.6482,-2.6492,-2.6387,-2.6387,-2.6386,0,0,-2.5764,-2.5802,-2.5832,-2.5907,-2.5942,-2.5994,-2.5978,-2.6034,-2.6074,-2.6082,-2.6154,-2.6184,-2.6239,-2.6317,-2.6354,-2.6344,-2.6469,-2.6436,-2.6439,-2.6443,-2.6488,-2.6498,-2.6507,-2.639,-2.6389,-2.6389,0,0,-2.5828,-2.5862,-2.5917,-2.5953,-2.6006,-2.603,-2.6043,-2.6098,-2.6117,-2.619,-2.6197,-2.6247,-2.6341,-2.6379,-2.6411,-2.6492,-2.6495,-2.6509,-2.654,-2.6584,-2.6593,-2.66,-2.6629,-2.6639,-2.6516,-2.6516,-2.6516,0,-2.5847,-2.5924,-2.5946,-2.6001,-2.6034,-2.6043,-2.6101,-2.6135,-2.6204,-2.6227,-2.6215,-2.6334,-2.6371,-2.6459,-2.6478,-2.6504,-2.6522,-2.6501,-2.6589,-2.6597,-2.6605,-2.6632,-2.6643,-2.6517,-2.6517,-2.6517,-2.6517,0,-2.5945,-2.5999,-2.6038,-2.6102,-2.614,-2.6196,-2.6228,-2.6265,-2.6276,-2.6302,-2.6376,-2.6422,-2.6485,-2.6507,-2.6519,-2.6597,-2.6589,-2.6583,-2.6561,-2.6615,-2.6642,-2.6653,-2.6519,-2.6518,-2.6518,-2.6518,0,0,-2.6013,-2.6089,-2.6103,-2.6132,-2.6192,-2.6235,-2.6293,-2.6353,-2.6384,-2.6432,-2.6482,-2.6562,-2.6556,-2.6593,-2.661,-2.6649,-2.671,-2.6638,-2.664,-2.6649,-2.6799,-2.6802,-2.6814,-2.6713,-2.6715,-2.6717,-2.6794,0,-2.6083,-2.6183,-2.6206,-2.6293,-2.6344,-2.6354,-2.6405,-2.6448,-2.6475,-2.6523,-2.6554,-2.6609,-2.6598,-2.662,-2.666,-2.6694,-2.674,-2.6689,-2.6761,-2.6763,-2.6745,-2.6828,-2.6832,-2.6902,-2.6805,-2.6806,-2.6808,0,-2.6178,-2.6226,-2.6317,-2.6371,-2.6393,-2.6438,-2.6495,-2.6541,-2.6592,-2.6608,-2.6649,-2.6662,-2.6725,-2.6701,-2.6789,-2.6753,-2.6785,-2.6806,-2.681,-2.6816,-2.6787,-2.6836,-2.6925,-2.6936,-2.6824,-2.6823,-2.6822,0,-2.6217,-2.6305,-2.6372,-2.6397,-2.6461,-2.6493,-2.6521,-2.657,-2.6605,-2.6656,-2.6679,-2.6738,-2.677,-2.6816,-2.6845,-2.6825,-2.6931,-2.6909,-2.6947,-2.6947,-2.6968,-2.6966,-2.7063,-2.699,-2.699,-2.699,-2.699,0,-2.6292,-2.6348,-2.639,-2.6431,-2.6494,-2.6521,-2.6583,-2.6613,-2.6656,-2.6704,-2.6718,-2.6764,-2.68,-2.6851,-2.6875,-2.6944,-2.6959,-2.6976,-2.6981,-2.6973,-2.6971,-2.6993,-2.6989,-2.6993,-2.6992,-2.6991,-2.6991,0,-2.6346,-2.6377,-2.6449,-2.6505,-2.652,-2.6564,-2.6613,-2.6654,-2.6681,-2.6742,-2.6758,-2.6802,-2.6863,-2.6897,-2.6974,-2.699,-2.7067,-2.7071,-2.7049,-2.7051,-2.7088,-2.7084,-2.7201,-2.7218,-2.7135,-2.7136,-2.7136,0,-2.6391,-2.6434,-2.6493,-2.6526,-2.6554,-2.6607,-2.6642,-2.6671,-2.6707,-2.6769,-2.6803,-2.6864,-2.6915,-2.7012,-2.7052,-2.7112,-2.7117,-2.7154,-2.7126,-2.7117,-2.7116,-2.7113,-2.7118,-2.7158,-2.7159,-2.7159,-2.716,0,-2.6468,-2.6481,-2.653,-2.6585,-2.6626,-2.6672,-2.6717,-2.6743,-2.678,-2.6821,-2.6882,-2.6921,-2.7,-2.7061,-2.7124,-2.7156,-2.7165,-2.7169,-2.7181,-2.7173,-2.7158,-2.7166,-2.7061,-2.7166,-2.7165,-2.7165,-2.7164,-2.7164,-2.6518,-2.6557,-2.6604,-2.6659,-2.6696,-2.6738,-2.6779,-2.6812,-2.6863,-2.6927,-2.6942,-2.7007,-2.7059,-2.7144,-2.7178,-2.7231,-2.7224,-2.7241,-2.7246,-2.7249,-2.725,-2.7151,-2.7243,-2.7242,-2.7242,-2.7242,-2.7242,0,-2.6595,-2.6626,-2.6676,-2.6738,-2.6782,-2.6785,-2.6835,-2.6872,-2.6928,-2.6975,-2.7024,-2.7095,-2.7155,-2.72,-2.7262,-2.7296,-2.7301,-2.7311,-2.7308,-2.7316,-2.7253,-2.7236,-2.7305,-2.7305,-2.7305,-2.7305,-2.7305,-2.7305,-2.664,-2.6705,-2.6724,-2.6809,-2.6841,-2.6902,-2.6931,-2.6971,-2.7008,-2.7086,-2.7135,-2.7163,-2.721,-2.7276,-2.7331,-2.7343,-2.7365,-2.7374,-2.7387,-2.7327,-2.732,-2.7313,-2.7298,-2.7379,-2.7379,-2.7445,-2.7446,-2.7446]},{"header":{"parameterUnit":"m.s-1","parameterCategory":1,"la1":30.2991,"la2":30.254,"lo1":-89.0895,"lo2":-89.0444,"dy":0.0017,"dx":0.0017,"nx":28,"ny":28,"refTime":"2025-04-24T03:00:00:Z","depth":0,"parameterNumber":3,"parameterNumberName":"V-component_of_WINDS"},"data":[0,0,0,0,0,0,0,0,0,0,0,0,0,0,0,0,0,0,0,0,0,0,0,0,0,0,0,0,0,0,0,0,0,0,0,0,0,0,0,0,0,0,0,0,0,0,0,0,0,0,0,0,0,0,0,0,0,0,2.7924,2.7925,0,2.8006,2.8006,2.8007,2.8055,2.8055,2.8056,2.8056,2.8134,2.8136,2.8138,0,0,0,0,0,0,0,0,0,0,0,0,0,2.7806,2.7808,2.7924,2.7925,2.7926,2.8005,2.8007,2.8008,2.8055,2.8055,2.8056,2.8056,2.8133,2.8136,2.8138,0,0,0,0,0,0,0,0,0,0,0,0,0,2.7869,2.7808,2.7924,2.796,2.7964,2.8005,2.8007,2.8008,2.8055,2.8055,2.8056,2.8056,2.8133,2.8135,2.8138,2.8149,0,0,2.8147,2.8148,0,0,0,0,0,0,0,0,2.7865,2.7873,2.7953,2.7957,2.7962,2.8021,2.7994,2.8055,2.8055,2.802,2.8056,2.8056,2.8096,2.8102,2.8116,2.8153,2.8156,2.8147,2.8149,2.815,2.8151,0,0,0,0,0,0,0,2.7861,2.787,2.7956,2.7954,2.796,2.797,2.7979,2.8005,2.8055,2.8023,2.8027,2.8036,2.8098,2.8113,2.8118,2.8157,2.8147,2.815,2.8151,2.8152,2.8207,2.8207,0,0,0,0,0,0,2.7851,2.7866,2.7954,2.7959,2.7914,2.7972,2.7982,2.8001,2.8055,2.8063,2.8036,2.8038,2.8108,2.8115,2.8121,2.8138,2.815,2.8153,2.8154,2.8207,2.8207,2.8207,0,0,0,0,0,0,2.7849,2.7859,2.795,2.7913,2.7926,2.7974,2.7995,2.8003,2.8018,2.8064,2.8073,2.8042,2.8109,2.8117,2.8142,2.8141,2.8154,2.8156,2.8208,2.8207,2.8207,2.8171,0,0,0,0,0,0,2.7845,2.7858,2.7863,2.7913,2.7928,2.7971,2.7995,2.8004,2.8023,2.8027,2.8073,2.8081,2.811,2.8138,2.8145,2.8145,2.8159,2.8208,2.8207,2.8207,2.8172,2.8169,2.8166,0,0,0,0,0,2.7841,2.7849,2.7863,2.7874,2.7936,2.7971,2.7979,2.8014,2.8023,2.8029,2.8058,2.8079,2.814,2.814,2.8148,2.8149,2.8208,2.8208,2.8207,2.8173,2.817,2.8167,0,0,0,0,0,0,2.7795,2.7856,2.7873,2.7897,2.7929,2.7979,2.7987,2.8009,2.8037,2.8039,2.8079,2.8089,2.811,2.8132,2.8131,2.8163,2.8176,2.8177,2.8148,2.8145,2.8142,2.8136,2.8161,0,0,0,0,0,2.7788,2.7814,2.7864,2.7881,2.7896,2.7939,2.7955,2.798,2.8013,2.8026,2.8058,2.8088,2.8115,2.8131,2.8157,2.8176,2.8186,2.818,2.8177,2.8175,2.8175,2.8187,2.8185,2.8205,2.8205,2.8205,0,0,2.7774,2.781,2.7823,2.7873,2.79,2.7924,2.795,2.7974,2.7991,2.8029,2.8056,2.808,2.8116,2.8138,2.8149,2.8157,2.8172,2.8174,2.8172,2.8174,2.8186,2.8184,2.8182,2.8205,2.8205,2.8205,0,0,2.776,2.779,2.7808,2.7835,2.7877,2.7905,2.7909,2.7957,2.7975,2.8002,2.8031,2.8052,2.8096,2.8121,2.8139,2.8135,2.8155,2.8142,2.8127,2.8138,2.8136,2.8135,2.8134,2.8133,2.8143,2.8143,2.8143,0,2.7736,2.7775,2.7813,2.7836,2.7857,2.7894,2.7912,2.7936,2.7983,2.7996,2.8004,2.8061,2.8088,2.8116,2.8116,2.8129,2.8134,2.8137,2.8134,2.8133,2.8132,2.8131,2.8131,2.8141,2.8141,2.8141,2.8141,0,2.7744,2.777,2.7779,2.7826,2.7848,2.7867,2.7907,2.7924,2.7946,2.7973,2.8,2.8034,2.8069,2.8077,2.8098,2.8108,2.8112,2.8127,2.8141,2.8128,2.8128,2.8128,2.8138,2.8139,2.8139,2.814,0,0,2.7703,2.7772,2.7775,2.7797,2.7845,2.7866,2.7887,2.7922,2.7936,2.7967,2.7985,2.8022,2.8036,2.8057,2.8081,2.809,2.8085,2.8104,2.8105,2.8099,2.8098,2.8086,2.8085,2.8098,2.8098,2.8098,2.8095,0,2.7696,2.7738,2.7774,2.7801,2.7826,2.7862,2.788,2.7911,2.7937,2.796,2.7988,2.8013,2.803,2.8043,2.8054,2.8083,2.8085,2.8084,2.8114,2.8115,2.8104,2.8085,2.8074,2.8068,2.8095,2.8095,2.8095,0,2.7694,2.7726,2.7757,2.7804,2.7816,2.7832,2.7867,2.7889,2.7925,2.7943,2.7966,2.7992,2.8014,2.8026,2.8058,2.8056,2.8071,2.8087,2.8087,2.8091,2.8104,2.8089,2.8068,2.8067,2.8095,2.8095,2.8095,0,2.7662,2.7712,2.7738,2.7755,2.781,2.7821,2.7844,2.788,2.7899,2.7929,2.7942,2.7973,2.7991,2.8014,2.8047,2.8052,2.8074,2.8089,2.8089,2.8088,2.8092,2.8091,2.8073,2.8101,2.8101,2.8101,2.8101,0,2.7651,2.7668,2.7724,2.7739,2.776,2.7799,2.7818,2.7844,2.7876,2.7896,2.7928,2.7946,2.7988,2.8011,2.8036,2.8058,2.8065,2.808,2.8086,2.8077,2.8075,2.8087,2.8088,2.8101,2.8101,2.8101,2.8101,0,2.7618,2.7656,2.7686,2.7736,2.7749,2.7762,2.7805,2.782,2.7848,2.7873,2.7881,2.7924,2.7952,2.7988,2.8026,2.8044,2.8063,2.8072,2.8051,2.8055,2.8053,2.8053,2.8041,2.8042,2.8069,2.8069,2.8069,0,2.7608,2.7623,2.7676,2.7692,2.7715,2.7741,2.7761,2.7801,2.782,2.7862,2.7872,2.7903,2.793,2.7973,2.8007,2.8037,2.8048,2.8042,2.8052,2.8043,2.8048,2.8047,2.8048,2.8039,2.8038,2.8038,2.8038,0,2.7587,2.7606,2.7635,2.767,2.7693,2.7722,2.7753,2.7764,2.7809,2.7829,2.7859,2.788,2.7921,2.7951,2.7985,2.8008,2.803,2.8034,2.8036,2.8026,2.8014,2.8021,2.8044,2.8034,2.8035,2.8035,2.8035,2.8035,2.7566,2.7581,2.7621,2.7652,2.7679,2.7707,2.7724,2.7755,2.7781,2.7819,2.784,2.7869,2.7904,2.7953,2.7974,2.7997,2.8005,2.8007,2.8008,2.8008,2.8005,2.801,2.8003,2.8003,2.8003,2.8003,2.8003,0,2.7547,2.7575,2.7603,2.7645,2.7669,2.769,2.7724,2.7743,2.7769,2.78,2.7827,2.7861,2.7891,2.7927,2.7959,2.797,2.7981,2.7977,2.7976,2.7981,2.7996,2.7991,2.7967,2.7967,2.7967,2.7967,2.7967,2.7967,2.754,2.7567,2.759,2.7629,2.7656,2.7687,2.7705,2.773,2.7756,2.7794,2.7819,2.7843,2.7876,2.7911,2.7938,2.7948,2.7958,2.7951,2.7963,2.7977,2.798,2.7983,2.7979,2.7953,2.7953,2.7947,2.7947,2.7947]}]]